Content
SEND FEEDBACK

Daily
Averages
Monthly
Summary
United States of America

ELIZABETH, NEW JERSEY


Home > North America > United States > New Jersey
Elevation: 1 foot     Latitude: 40 42N     Longitude: 074 10W

WEATHER
 
SELECT A DAY
Number of Records: 192,473;   Date Range: 1/1/95 - 10/24/14
 
SHARE

PRINT THIS DATA

[ ← Previous Day ]
WEATHER ALMANAC - JUNE 21, 2013
[ Next Day → ]
[ °C ]   °F
Weather ElementAverageHighLow
Temperature73.4 °F82.9 °F (1:51 pm)62.1 °F (4:51 am)
Dewpoint52.9 °F57.9 °F (6:51 pm)46.9 °F (1:51 am)
Humidity49.4 %67 % (6:51 am)38 % (1:51 pm)
Barometer30.27 in30.31 in (8:51 am)30.23 in (5:51 pm)
Wind Speed8.8 mph15 mph (3:51 pm)
Wind Gust18.4 mph (3:51 pm)
Weather ElementAverage
Visibility10 mi
Wind DirectionSSW (193 °)

Weather ElementTotal
Precipitation---
Cooling Degree Days7.5 (Base 65)
Growing Degree Days22.5 (Base 50)
Averaged from 23 records on June 21, 2013
WEATHER CONDITIONS BREAKOUT
WIND DIRECTION BREAKOUT
WEATHER BY HOUR - JUNE 21, 2013
[ °C ]   °F
Local TimeTemperatureDewpointHumidityBarometerVisibilityWind DirectionWind SpeedGust SpeedPrecipitationEventsConditions
1:51 AM64.0 °F46.9 °F54 %30.28 in10.0 miSSW (200°)8.1 mphClear
2:51 AM64.9 °F46.9 °F52 %30.28 in10.0 miSW (220°)9.2 mphPartly Cloudy
3:51 AM64.0 °F46.9 °F54 %30.28 in10.0 miSW (220°)9.2 mphPartly Cloudy
4:51 AM62.1 °F48.9 °F62 %30.28 in10.0 miSW (220°)6.9 mphPartly Cloudy
5:51 AM62.1 °F50.0 °F65 %30.29 in10.0 miWSW (240°)6.9 mphPartly Cloudy
6:51 AM64.0 °F53.1 °F67 %30.30 in10.0 miSSW (200°)3.5 mphPartly Cloudy
7:51 AM68.0 °F51.1 °F55 %30.30 in10.0 miSW (230°)5.8 mphClear
8:51 AM72.0 °F50.0 °F46 %30.31 in10.0 miWSW (250°)5.8 mphClear
9:51 AM75.0 °F52.0 °F44 %30.29 in10.0 miSW (230°)6.9 mphPartly Cloudy
10:51 AM78.1 °F53.1 °F42 %30.30 in10.0 miWSW (250°)11.5 mphPartly Cloudy
11:51 AM79.0 °F54.0 °F42 %30.29 in10.0 miSW (230°)6.9 mphPartly Cloudy
12:51 PM81.0 °F55.0 °F41 %30.29 in10.0 miVariable6.9 mphScattered Clouds
1:51 PM82.9 °F55.0 °F38 %30.27 in10.0 miWSW (240°)9.2 mphScattered Clouds
2:51 PM82.0 °F55.0 °F39 %30.26 in10.0 miSouth (170°)8.1 mphScattered Clouds
3:51 PM81.0 °F55.9 °F42 %30.25 in10.0 miSSE (150°)15.0 mph18.4 mphScattered Clouds
4:51 PM82.0 °F55.9 °F41 %30.24 in10.0 miSSE (150°)10.4 mph18.4 mphScattered Clouds
5:51 PM80.1 °F57.0 °F45 %30.23 in10.0 miSSE (150°)11.5 mphMostly Cloudy
6:51 PM80.1 °F57.9 °F47 %30.24 in10.0 miSouth (170°)11.5 mphMostly Cloudy
7:51 PM77.0 °F57.0 °F50 %30.24 in10.0 miSouth (170°)11.5 mphMostly Cloudy
8:51 PM75.0 °F55.0 °F50 %30.24 in10.0 miSouth (170°)10.4 mphMostly Cloudy
9:51 PM73.0 °F54.0 °F51 %30.25 in10.0 miSouth (180°)9.2 mphMostly Cloudy
10:51 PM71.1 °F54.0 °F55 %30.26 in10.0 miSouth (190°)8.1 mphMostly Cloudy
11:51 PM69.1 °F52.0 °F54 %30.26 in10.0 miSSW (210°)10.4 mphMostly Cloudy
Hourly data recorded from KEWR, located miles away from Elizabeth, New Jersey







STORIES FROM OUR PARTNERS